Starlink 34067

operational
NORAD ID: 64115 Int'l Des: 2025-110 Owner: SPXS Country: US Constellation: starlink
LEOCIRCULAR

关于 Starlink 34067

正在加载描述...

实时位置

正在加载3D地球...

即将过境

高度历史

Altitude vs Time

uPlot chart will show altitude changes over time

两行轨道根数

1 64115U 25110V 26095.45649590 .00044805 00000-0 15153-2 0 9998
2 64115 53.1603 262.2145 0001215 79.3568 280.7570 15.30209629 49982
Epoch: Apr 5, 2026 • Age: 8 hours

当前状态

高度 479.8 km
速度 7.63 km/s
星下点 48.57°N, 162.28°W
发射日期 May 23, 2025
运行时间 0.8 years
类型 internet

技术详情

分类 Payload
质量 575.00 kg
干质量 530.00 kg
总质量 575.00 kg
长度 0.30 m
直径 4.10 m
跨度 29.00 m
形状 Box + pan
制造商 SPXS
平台类型 Starlink V2MO
阶段状态 In Orbit
所有者/国家 SPXS/US

大型星座

Loading constellations...